Preview of NWS' New Version of Forecast
This preview is not operational and should not be used for support decisions.
Latest weather observations around

Marietta, Cobb County-McCollum Field Airport (KRYY)

Using International System of Units (Switch to English Units)
Date/ Time (EDT) Wind (kph) Vis. (km) Weather Sky Cond. Temp (°C) Rel. Humidity Wind Chill (°C) Heat Index (°C) Pressure Precip. (cm)
Air Dwpt 6 hour Altimeter (hPa) Sea level (hPa) 1 hr 3 hr 6 hr
Max Min
Apr 20 21:48 Calm 16.09 Cloudy OVC065 8 6     86%         0    
Apr 20 20:48 NNW 5 16.09 Light Rain BKN048 OVC060 8 6     86% 8       0    
Apr 20 19:48 Calm 16.09 Cloudy BKN047 OVC055 8 6     86%             0
Apr 20 18:48 WNW 8 16.09 Cloudy SCT016 OVC038 9 6     80% 8            
Apr 20 17:48 W 17 16.09 Cloudy FEW020 OVC030 9 5     77% 6            
Apr 20 17:43   16.09 Cloudy SCT020 OVC030 9 5     76%     1011.5        
Apr 20 16:48   16.09 Cloudy BKN021 OVC027 9 5     77%           0  
Apr 20 15:48   16.09 Cloudy OVC017 9 5     77%         0    
Apr 20 14:48   16.09 Light Rain BKN016 OVC033 9 6     80%         0    
Apr 20 13:48   16.09 Cloudy SCT019 BKN023 OVC055 9 6     80%         0   0
Apr 20 12:48 W 21 16.09 Cloudy BKN016 OVC024 9 5     77% 6       0    
Apr 20 12:17 W 18 16.09 Cloudy BKN016 BKN020 OVC045 8 5     81% 5   1008.5   0    
Apr 20 12:11 WSW 18 16.09 Cloudy SCT016 BKN036 OVC043 8 5     81% 5   1008.1   0    
Apr 20 11:48 W 18 16.09 Light Rain FEW014 BKN025 OVC043 7 5     86% 4       0    
Apr 20 10:48 W 17 16.09 Cloudy SCT015 BKN021 OVC028 8 5     82% 5         0  
Apr 20 09:56 WSW 22 16.09 Fog/Mist OVC015 7 5     87% 3   1006.4        
Apr 20 09:48   16.09 Fog/Mist BKN013 OVC018 7 5     86%         0    
Apr 20 08:48 WSW 13 16.09 Light Rain and Fog/Mist OVC012 6 5     93% 3       0    
Apr 20 08:38 WSW 13 16.09 Light Rain and Fog/Mist BKN012 OVC018 6 4     87% 3   1005.8   0    
Apr 20 07:48 SW 15 9.66 Light Rain and Fog/Mist OVC015 6 4     92% 3       0   0
Apr 20 07:24 SW 11 9.66 Light Rain and Fog/Mist SCT012 BKN018 OVC025 6 4     87% 4   1005.1   0    
Apr 20 06:48 WSW 21 16.09 Light Rain BKN012 OVC019 6 4     92% 2       0    
Apr 20 06:19 WSW 21 16.09 Light Rain BKN014 OVC020 6 4     87% 2   1004.1   0    
Apr 20 05:48 WSW 17 16.09 Light Rain FEW010 BKN015 OVC023 6 4     89% 3       0    
Apr 20 05:22 SW 11 16.09 Light Rain BKN012 BKN020 OVC029 6 5     93% 4   1004.1   0    
Apr 20 05:13 SW 13 16.09 Light Rain SCT012 BKN022 OVC060 6 4     87% 3   1004.1   0    
Apr 20 03:48 SW 13 16.09 Cloudy BKN013 OVC018 7 5     89% 4       0    
Apr 20 03:45 SW 13 16.09 Cloudy SCT012 BKN018 OVC034 6 5     93% 3   1004.4   0    
Apr 20 03:39 SW 15 16.09 Cloudy BKN014 BKN020 OVC034 6 5     93% 3   1004.4   0    
Apr 20 03:30 WSW 15 16.09 Cloudy SCT011 BKN018 OVC034 6 5     93% 3   1004.8   0    
Apr 20 02:53 SW 13 14.48 Light Rain BKN011 OVC017 6 5     93% 3   1004.8   0    
Apr 20 02:48 SW 15 16.09 Light Rain SCT010 OVC017 6 5     93% 3       0    
Apr 20 02:04 WSW 15 16.09 Light Rain SCT019 BKN025 OVC046 7 4     81% 4   1005.1   0    
Apr 20 01:48 W 17 16.09 Light Rain SCT019 OVC048 7 4     85% 4       0   0
Apr 20 00:53 WSW 21 16.09 Cloudy BKN019 OVC046 7 4     81% 4   1004.8        
Apr 20 00:48 WSW 24 16.09 Mostly Cloudy SCT019 BKN046 7 4     82% 3            
Apr 19 23:48 WSW 13 16.09 Cloudy OVC022 7 5     86% 5            
Apr 19 22:57 WSW 21 16.09 Mostly Cloudy BKN017 7 5     87% 4   1004.1        
Apr 19 22:48   16.09 Partly Cloudy SCT019 7 5     86%           0  
Apr 19 22:24   16.09 Cloudy OVC017 8 6     87%     1003.7        
Apr 19 21:48   16.09 Cloudy BKN011 BKN016 OVC021 8 7     90%         0    
Apr 19 20:48   11.27 Light Rain BKN014 BKN021 OVC031 9 8     90%         0    
Apr 19 20:19   16.09 Light Rain BKN011 BKN016 OVC029 10 8     87%     1002   0    
Apr 19 20:09 W 22 16.09 Light Rain BKN009 OVC016 11 9     87%     1001.7   0    
Apr 19 19:48   4.83 Light Rain and Fog/Mist SCT009 BKN014 OVC019 11 9     92%         0   0
Apr 19 19:46 W 28 4.83 Light Rain and Fog/Mist SCT009 BKN014 OVC030 11 9     87%     1001.4   0    
Apr 19 19:40 WSW 24 14.48 Light Rain BKN012 BKN018 OVC032 11 9     87%     1001.4   0    
Apr 19 19:27 WSW 28 6.44 Rain and Fog/Mist SCT012 BKN017 OVC065 11 9     87%     1001   0    
Apr 19 18:48   16.09 Light Rain SCT021 BKN032 OVC055 13 10     83%         0    
Apr 19 18:24 WSW 22 16.09 Cloudy SCT025 BKN034 OVC060 14 9     72%     999.7   0    
Apr 19 17:48   16.09 Cloudy BKN021 BKN026 OVC037 14 11     78%         0    
Apr 19 16:48   16.09 Light Rain BKN019 OVC031 15 12     81%         0 0  
Apr 19 15:53   16.09 Cloudy BKN019 BKN023 OVC090 17 14     83%     998.3        
Apr 19 15:48 W 18 16.09 Cloudy BKN010 OVC019 17 13     80%         0    
Apr 19 15:03 W 18 16.09 Cloudy FEW010 BKN013 OVC020 16 14     88%     998.3   0    
Apr 19 14:48   16.09 Light Rain FEW013 BKN018 OVC032 16 14     90%         0    
Apr 19 14:39   11.27 Light Rain SCT016 BKN029 16 14     88%     998   0    
Apr 19 13:48   16.09 Mostly Cloudy FEW021 SCT029 BKN037 20 16     76%         0   1
Apr 19 13:41   16.09 Mostly Cloudy FEW017 SCT021 BKN029 20 16     78%     997.6   0    
Apr 19 12:48 WSW 15 16.09 Mostly Cloudy FEW013 SCT017 BKN070 19 16     81%         0    
Apr 19 12:46 WSW 21 16.09 Mostly Cloudy SCT013 SCT017 BKN070 19 16     83%     997.6   0    
Apr 19 12:26 WSW 11 16.09 Cloudy BKN011 OVC070 19 17     88%     998.3   0    
Apr 19 11:55 WSW 13 6.44 Light Rain and Fog/Mist BKN010 BKN029 18 17     94%     998.3   0    
Apr 19 11:48 SSW 9 6.44 Light Rain and Fog/Mist FEW008 BKN019 OVC060 18 17     96%         0    
Apr 19 11:41 SW 11 6.44 Light Rain and Fog/Mist FEW008 BKN041 OVC060 18 17     94%     999   0    
Apr 19 11:35 SW 9 6.44 Light Rain and Fog/Mist SCT013 BKN049 OVC070 18 17     94%     998.7   0    
Apr 19 11:24 SW 8 6.44 Light Rain and Fog/Mist FEW006 BKN015 OVC070 18 17     94%     999   0    
Apr 19 11:04 SSW 5 6.44 Light Rain and Fog/Mist BKN013 OVC050 18 17     94%     999   0    
Apr 19 10:48 Calm 16.09 Light Rain FEW009 BKN015 OVC019 18 17     96%         0 1  
Apr 19 10:41 Calm 16.09 Light Rain FEW005 BKN013 OVC019 18 17     94%     999   0    
Apr 19 09:48 SE 8 6.44 Rain and Fog/Mist BKN008 BKN031 OVC095 17 17     97%         1    
Apr 19 09:28 9 4.83 Rain and Fog/Mist BKN006 OVC013 17 17     100%     999.7   0    
Apr 19 08:48 Calm 6.44 Light Rain and Fog/Mist BKN004 OVC020 17 16     96%         1    
Apr 19 08:23 9 4.83 Light Rain and Fog/Mist BKN004 OVC020 17 16     94%     1000   0    
Apr 19 08:12 E 13 3.22 Rain and Fog/Mist OVC004 17 16     94%     999.7   0    
Apr 19 07:48 5 9.66 Light Rain and Fog/Mist BKN004 OVC060 17 16     96%         1   4
Apr 19 06:48 ESE 9 6.44 Rain and Fog/Mist BKN006 BKN018 OVC065 17 16     93%         1    
Apr 19 05:48 SE 11 6.44 Rain and Fog/Mist BKN008 BKN060 OVC075 18 17     93%         1    
Apr 19 05:39 S 9 8.05 Rain and Fog/Mist BKN008 BKN025 OVC070 18 17     94%     1001   0    
Apr 19 05:20 ESE 5 6.44 Rain and Fog/Mist FEW027 BKN055 OVC095 18 17     94%     1001   0    
Apr 19 04:56 S 15 11.27 Thunderstorms and Rain FEW007 BKN041 OVC075 18 17     94%     1001.7   0    
Apr 19 04:48 S 11 14.48 Thunderstorms and Rain SCT007 BKN023 OVC043 18 17     96%         2 2  
Apr 19 04:46 SSW 17 11.27 Thunderstorms and Rain SCT007 BKN016 OVC043 18 17     94%     1002   2    
Apr 19 04:38 SSW 13 4.83 Thunderstorms and Heavy Rain and Fog/Mist FEW005 BKN010 OVC027 18 17     94%     1002   2    
Apr 19 04:29 ESE 13 2.41 Heavy Rain and Fog/Mist SCT005 BKN010 OVC015 17 17     100%     1002   2    
Apr 19 04:20 5 3.22 Thunderstorms and Heavy Rain and Fog/Mist FEW005 BKN010 OVC017 17 17     100%     1001.7   1    
Apr 19 03:53 ESE 11 6.44 Thunderstorms and Heavy Rain and Fog/Mist FEW008 OVC019 17 17     100%     1001.7   0    
Apr 19 03:48 E 17 9.66 Rain and Fog/Mist FEW008 BKN019 OVC026 17 16     93%         0    
Apr 19 03:45 E 17 12.87 Rain FEW008 BKN019 OVC026 17 16     94%     1001   0    
Apr 19 03:43 E 17 14.48 Rain BKN021 OVC028 17 16     94%     1001   0    
Apr 19 03:31 E 17 16.09 Cloudy FEW008 BKN028 OVC038 17 16     94%     1001.7   0    
Apr 19 03:26 E 17 16.09 Cloudy FEW008 BKN026 OVC050 17 16     94%     1001.7   0    
Apr 19 02:48 E 15 16.09 Light Rain FEW006 BKN042 OVC050 17 16     96%         0    
Apr 19 02:42 E 11 16.09 Cloudy SCT006 OVC046 17 16     94%     1003.4   0    
Apr 19 02:23 E 11 16.09 Cloudy BKN006 OVC110 17 16     94%     1004.1   0    
Apr 19 02:15 E 11 16.09 Cloudy BKN004 OVC110 17 16     94%     1004.4   0    
Apr 19 01:57 ESE 9 16.09 Light Rain BKN008 BKN070 OVC110 17 16     94%     1004.8   0    
Apr 19 01:48 E 11 16.09 Light Rain SCT008 BKN065 OVC120 17 16     96%         1   1
Apr 19 01:35 E 13 9.66 Light Rain and Fog/Mist FEW006 SCT065 OVC100 17 16     94%     1006.1   1    
Apr 19 00:48 E 8 4.83 Rain and Fog/Mist BKN055 BKN070 OVC095 17 16     96%         1    
Apr 19 00:10   11.27 Rain FEW019 BKN040 OVC060 18 16     88%     1009.2   0    
Apr 18 23:48 SSE 15 14.48 Light Rain OVC065 22 14     61%   22     0    
Apr 18 22:48   16.09 Cloudy BKN050 BKN060 OVC120 23 14     57%   23          
Apr 18 21:48 SSE 11 16.09 Mostly Cloudy BKN055 23 14     57%   23          
Apr 18 20:48 ESE 15 16.09 Mostly Clear FEW065 23 14     57%   23          
Apr 18 19:48 SSE 11 16.09 Mostly Cloudy BKN075 24 14     54%   24          
Apr 18 18:48 SSE 17 16.09 Mostly Cloudy BKN065 24 13     50%   24          
Apr 18 17:48 SSE 22 16.09 Partly Cloudy FEW060 SCT070 26 13     47%   25          
Apr 18 16:48 S 22 16.09 Mostly Cloudy FEW055 BKN070 26 12     43%   25          
Apr 18 15:48 SSE 18 16.09 Partly Cloudy FEW050 SCT065 25 14     50%   25          
Apr 18 14:48 S 18 16.09 Mostly Cloudy SCT047 BKN065 25 15     54%   25          
Apr 18 13:48 S 15 16.09 Mostly Cloudy SCT045 BKN060 24 14     55%   24          
Apr 18 12:48 SSE 17 16.09 Mostly Cloudy BKN032 BKN041 23 16     66%   23          
Apr 18 11:48 S 13 16.09 Cloudy OVC045 21 16     71%              
Apr 18 10:48 S 13 16.09 Clear CLR 21 16     73%              
Apr 18 09:48 8 16.09 Clear CLR 19 15     78%              
Apr 18 08:48 E 5 16.09 Clear CLR 17 14     81%              
Apr 18 08:14 SE 9 16.09 Mostly Clear FEW014 17 13     77%     1015.2        
Apr 18 07:48 E 8 16.09 Mostly Cloudy BKN014 17 13     78%              
Apr 18 07:30 E 8 16.09 Mostly Cloudy BKN014 17 13     77%     1015.2        
Apr 18 06:48 5 16.09 Clear CLR 18 13     75%              
Apr 18 05:48 5 16.09 Clear CLR 17 13     75%              
Apr 18 04:48 ESE 8 16.09 Mostly Clear FEW040 18 13     70%              
Apr 18 03:48 S 9 16.09 Clear CLR 20 12     61%              
Apr 18 02:48 S 9 16.09 Clear CLR 19 13     66%              
Apr 18 01:48 5 16.09 Clear CLR 20 13     63%              
Apr 18 00:48 S 9 16.09 Clear CLR 19 13     66%              
Apr 17 23:48 S 11 16.09 Clear CLR 20 13     63%              
Apr 17 22:48 S 9 16.09 Clear CLR 21 12     57%              
May 15 02:48 SE 9 16.09 Clear CLR 23 17     66%   23          
May 14 17:48 WNW 9 16.09 Cloudy BKN060 OVC080 31 17     43%   32          
May 14 05:48 Calm 16.09 Clear   18 17     90%              
May 14 01:48 Calm 16.09 Clear CLR 21 17     78%              
May 13 23:48 Calm 16.09 Clear CLR 22 18     76%   22          
May 13 10:48 Calm 16.09 Clear CLR 28 16     47%   28          
May 12 03:48 Calm 16.09 Clear CLR 19 17     90%              
May 11 23:48 Calm 16.09 Clear CLR 22 18     81%   22          
May 11 21:48 Calm 16.09 Clear CLR 24 18     71%   24          
May 11 19:48 5 16.09 Clear CLR 29 16     46%   29          
Jun 11 22:47 E 8 16.09 Partly Cloudy SCT070 26 20     70%   26 1021        
Jun 11 15:47 E 11 16.09 Partly Cloudy SCT050 SCT090 31 20     52%   33 1020        
Jun 10 19:50 Calm 16.09 Partly Cloudy SCT070 27 16     51%   27 1017.6        
Jun 07 21:47 W 9 16.09 Clear CLR 22 12     53%   22 1009.8        
Jun 07 11:47 NE 11 16.09 Clear   23 15     61%   23 1010.2